STARLINK-37965, 69753

Orbit data source: Space-Track

STARLINK-37965, 69753 is a payload satellite owned by SpaceX/Seattle (US) in SSO that was launched on Thu, 02 Jul 2026 UTC via an FALCON 9 launch vehicle from the Air Force Western Test Range (AFWTR). Payload-class satellites include a variety of spacecraft equipped with specific instruments for various scientific and technological missions. These include communications satellites like Starlink; space stations such as the ISS; scientific satellites like the Hubble; Earth observation satellites from companies like Planet Labs, Umbra, and HawkEye 360; GPS; miniature CubeSats for education and research; and military/defense satellites.

Loading next visibility...
Identifier
69753, 2026-150Q
Orbit
SSO
Country
Flag of USUS
Related business
Manufacturer
SpaceX/Seattle
Mission
Operational spacecraft
Bus & Motor
STARLINK V2MO, Unknown motor
Mass
575 kg wet, ~530 kg dry
Launch date (UTC)
2026-07-02 (3 weeks ago)
Launch vehicle
FALCON 9
Launch site
Air Force Western Test Range (AFWTR)
Object type
Payload
Rocket body
Debris
Shape & HBR
Unknown shape, 17.7 m
Radar Cross Section
Large (>1 m²)

Expand to show TLE details & history
Last TLE update: 18 hours ago

TLE from 18 hours ago
0 STARLINK-37965
1 69753U 26150Q   26202.49160479  .00270860  00000-0  17525-2 0  9991
2 69753  97.2850  41.1842 0000988 101.1794 258.9583 15.75286398  4313
Epoch: 2026-07-21T11:47Z
TLE epoch observation values (Epoch: 2026-07-21T11:47:54.653Z)
Latitude
0.00001°
Longitude
-75.05405°
Altitude
347.112 km
Speed
7.701 km/s
True Right ascension
02h 44m 44s
True Declination
0° 00' 00"
Sunlit
Object was in daylight at epoch
Visualization orbit readout
Latitude
Unknown
Longitude
Unknown
Altitude
Unknown
Speed
Unknown
Apparent Right ascension
Unknown
Apparent Declination
Unknown
Sunlit
N/A
Visualization observer readout
Local Sidereal Time
18:39:06
Azimuth
Unknown
Elevation
Unknown
Doppler factor
Unknown
Orbital elements
Apogee altitude
341.367 km
Perigee altitude
340.04 km
Semi-major axis
6,718.841 km
Eccentricity
0.0001
Inclination
97.285°
RAAN
41.1842°
Arg. of periapsis
101.1794°
True anomaly
258.94719°
Mean anomaly
258.9583°
Eccentric anomaly
258.95274°
Mean motion
3.94096 °/min
Orbital period
91.35 mins
BSTAR
0.0017525
Loading maneuver chart data...
Computing Atmospheric mass density...
Loading historical data...
Loading historical data...
Loading historical data...
Loading historical data...
Loading historical data...
Loading historical data...
Loading historical data...

Documentation

Showing up to 5 results
|